This is the latest recevied weather packets stored in our database for station/object DB0MOE-6. If no packets are shown the sender has not sent any weather packets the latest 1 day(s).
| Time | Temp. | Humidity | Pressure | Rain* | Wind** | Luminosity | Snow |
|---|---|---|---|---|---|---|---|
| 1777981222 | 16.11° C | 78% | 988.8 hPa | 0 mm | 0.45 m/s, 315° | - | - |
| 1777981162 | 16.11° C | 78% | 988.8 hPa | 0 mm | 0.45 m/s, 315° | - | - |
| 1777981102 | 16.11° C | 77% | 988.8 hPa | 0 mm | 0.45 m/s, 300° | - | - |
| 1777981042 | 16.11° C | 77% | 989 hPa | 0 mm | 0.45 m/s, 273° | - | - |
| 1777980982 | 16.11° C | 76% | 988.8 hPa | 0 mm | 0.45 m/s, 270° | - | - |
| 1777980922 | 16.11° C | 76% | 988.7 hPa | 0 mm | 0.45 m/s, 275° | - | - |
| 1777980862 | 16.11° C | 75% | 988.8 hPa | 0 mm | 0.45 m/s, 292° | - | - |
| 1777980802 | 16.11° C | 76% | 988.7 hPa | 0 mm | 0 m/s | - | - |
| 1777980742 | 16.11° C | 74% | 988.8 hPa | 0 mm | 0.45 m/s, 292° | - | - |
| 1777980682 | 16.11° C | 75% | 988.8 hPa | 0 mm | 0.45 m/s, 292° | - | - |
| 1777980622 | 16.11° C | 77% | 988.8 hPa | 0 mm | 0.45 m/s, 292° | - | - |
| 1777980562 | 16.11° C | 76% | 988.8 hPa | 0 mm | 0.45 m/s, 292° | - | - |
| 1777980502 | 16.11° C | 76% | 988.9 hPa | 0 mm | 0.45 m/s, 278° | - | - |
| 1777980442 | 16.11° C | 75% | 988.7 hPa | 0 mm | 0.45 m/s, 302° | - | - |
| 1777980382 | 16.11° C | 75% | 988.9 hPa | 0 mm | 0.45 m/s, 286° | - | - |
| 1777980322 | 16.11° C | 73% | 988.9 hPa | 0 mm | 0.45 m/s, 312° | - | - |
| 1777980262 | 16.11° C | 75% | 988.8 hPa | 0 mm | 0 m/s | - | - |
| 1777980202 | 16.11° C | 75% | 988.7 hPa | 0 mm | 0.45 m/s, 292° | - | - |
| 1777980142 | 16.11° C | 74% | 988.7 hPa | 0 mm | 0 m/s | - | - |
| 1777980082 | 16.11° C | 74% | 988.8 hPa | 0 mm | 0 m/s | - | - |
| 1777980022 | 16.11° C | 74% | 988.8 hPa | 0 mm | 0.45 m/s, 307° | - | - |
| 1777979962 | 16.11° C | 73% | 988.8 hPa | 0 mm | 0.45 m/s, 282° | - | - |
| 1777979902 | 16.11° C | 73% | 988.9 hPa | 0 mm | 0.45 m/s, 270° | - | - |
| 1777979841 | 16.11° C | 73% | 989 hPa | 0 mm | 0 m/s | - | - |
| 1777979781 | 16.11° C | 75% | 988.9 hPa | 0 mm | 0.45 m/s, 292° | - | - |
* Rain latest hour (hover to see other rain measurements)
** Current wind speed in m/s (hover to see current wind gust speed)